Location: Vigo di Fassa
(46.4167°N, 11.6667°E)
Time: 14:59:43
(UTC+00:00)

USA 306 - Pass Details

Date: 03 March 2021
Orbit: 564 x 577 km, 54.0° (Epoch: 17 April)

Event Time Altitude Azimuth Distance (km) Brightness Sun altitude
Rises 18:20:46 0° 284° (WNW) 2,773 8.3 -14.3°
Reaches altitude 10° 18:23:15 10° 296° (WNW) 1,873 6.7 -14.7°
Maximum altitude 18:27:00 29° 357° (N) 1,059 4.3 -15.4°
Enters shadow 18:29:30 17° 47° (NE) 1,478 4.6 -15.8°
